Time,TemperatureF,DewpointF,PressureIn,WindDirection,WindDirectionDegrees,WindSpeedMPH,WindSpeedGustMPH,Humidity,HourlyPrecipIn,Conditions,Clouds,dailyrainin,SoftwareType,DateUTC
2013-08-08 00:01:00,65.3,64.7,29.97,West,268,0.0,1.0,98,0.00,,,1.30,WUHU216DAVISVP2,2013-08-08 04:01:00,
2013-08-08 00:06:00,65.2,64.6,29.97,West,268,0.0,1.0,98,0.00,,,1.30,WUHU216DAVISVP2,2013-08-08 04:06:00,
2013-08-08 00:11:00,65.1,64.5,29.97,West,268,0.0,1.0,98,0.00,,,1.30,WUHU216DAVISVP2,2013-08-08 04:11:00,
2013-08-08 00:16:00,65.0,64.4,29.97,West,268,0.0,1.0,98,0.00,,,1.30,WUHU216DAVISVP2,2013-08-08 04:16:00,
2013-08-08 00:21:00,64.9,64.3,29.97,West,268,0.0,1.0,98,0.00,,,1.30,WUHU216DAVISVP2,2013-08-08 04:21:00,
2013-08-08 00:26:00,64.9,64.3,29.97,West,272,0.0,2.0,98,0.00,,,1.30,WUHU216DAVISVP2,2013-08-08 04:26:00,
2013-08-08 00:31:00,65.0,64.4,29.97,West,272,0.0,2.0,98,0.00,,,1.30,WUHU216DAVISVP2,2013-08-08 04:31:00,
2013-08-08 00:36:00,65.0,64.4,29.97,West,272,0.0,2.0,98,0.00,,,1.30,WUHU216DAVISVP2,2013-08-08 04:36:00,
2013-08-08 00:41:00,65.1,64.5,29.97,West,272,0.0,2.0,98,0.00,,,1.30,WUHU216DAVISVP2,2013-08-08 04:41:00,
2013-08-08 00:46:00,65.1,64.5,29.97,West,272,1.0,1.0,98,0.00,,,1.30,WUHU216DAVISVP2,2013-08-08 04:46:00,
2013-08-08 00:51:00,65.1,64.5,29.97,West,272,0.0,1.0,98,0.00,,,1.30,WUHU216DAVISVP2,2013-08-08 04:51:00,
2013-08-08 00:56:00,65.0,64.4,29.97,North,4,0.0,2.0,98,0.00,,,1.30,WUHU216DAVISVP2,2013-08-08 04:56:00,
2013-08-08 01:01:00,64.9,64.3,29.97,North,4,0.0,2.0,98,0.00,,,1.30,WUHU216DAVISVP2,2013-08-08 05:01:00,
2013-08-08 01:06:00,64.7,64.1,29.97,North,4,0.0,2.0,98,0.00,,,1.30,WUHU216DAVISVP2,2013-08-08 05:06:00,
2013-08-08 01:11:00,64.7,64.1,29.97,North,4,0.0,2.0,98,0.00,,,1.30,WUHU216DAVISVP2,2013-08-08 05:11:00,
2013-08-08 01:16:00,64.6,64.0,29.97,North,4,1.0,2.0,98,0.00,,,1.30,WUHU216DAVISVP2,2013-08-08 05:16:00,
2013-08-08 01:21:00,64.6,64.0,29.96,North,4,0.0,2.0,98,0.00,,,1.30,WUHU216DAVISVP2,2013-08-08 05:21:00,
2013-08-08 01:26:00,64.6,64.0,29.96,North,4,0.0,2.0,98,0.00,,,1.30,WUHU216DAVISVP2,2013-08-08 05:26:00,
2013-08-08 01:31:00,64.6,64.0,29.96,North,4,0.0,2.0,98,0.00,,,1.30,WUHU216DAVISVP2,2013-08-08 05:31:00,
2013-08-08 01:36:00,64.5,63.9,29.96,North,4,0.0,2.0,98,0.00,,,1.30,WUHU216DAVISVP2,2013-08-08 05:36:00,
2013-08-08 01:41:00,64.5,63.9,29.96,North,4,0.0,2.0,98,0.00,,,1.30,WUHU216DAVISVP2,2013-08-08 05:41:00,
2013-08-08 01:46:00,64.4,63.8,29.96,North,4,0.0,2.0,98,0.00,,,1.30,WUHU216DAVISVP2,2013-08-08 05:46:00,
2013-08-08 01:51:00,64.4,64.1,29.95,NNE,25,1.0,3.0,99,0.00,,,1.30,WUHU216DAVISVP2,2013-08-08 05:51:00,
2013-08-08 01:56:00,64.3,64.0,29.95,NNE,24,0.0,3.0,99,0.00,,,1.30,WUHU216DAVISVP2,2013-08-08 05:56:00,
2013-08-08 02:01:00,64.3,64.0,29.95,NNE,25,0.0,3.0,99,0.00,,,1.30,WUHU216DAVISVP2,2013-08-08 06:01:00,
2013-08-08 02:06:00,64.3,64.0,29.95,NNE,25,0.0,3.0,99,0.00,,,1.30,WUHU216DAVISVP2,2013-08-08 06:06:00,
2013-08-08 02:11:00,64.3,64.0,29.95,NNE,24,0.0,2.0,99,0.00,,,1.30,WUHU216DAVISVP2,2013-08-08 06:11:00,
2013-08-08 02:16:00,64.2,63.9,29.96,NNE,25,0.0,3.0,99,0.00,,,1.30,WUHU216DAVISVP2,2013-08-08 06:16:00,
2013-08-08 02:21:00,64.1,63.8,29.96,NNE,24,0.0,3.0,99,0.00,,,1.30,WUHU216DAVISVP2,2013-08-08 06:21:00,
2013-08-08 02:26:00,64.1,63.8,29.96,NNE,24,0.0,3.0,99,0.00,,,1.30,WUHU216DAVISVP2,2013-08-08 06:26:00,
2013-08-08 02:31:00,64.1,63.8,29.96,NNE,25,0.0,3.0,99,0.00,,,1.30,WUHU216DAVISVP2,2013-08-08 06:31:00,
2013-08-08 02:36:00,64.1,63.8,29.96,NNE,25,0.0,2.0,99,0.00,,,1.30,WUHU216DAVISVP2,2013-08-08 06:36:00,
2013-08-08 02:41:00,64.1,63.8,29.96,NNE,25,0.0,2.0,99,0.00,,,1.30,WUHU216DAVISVP2,2013-08-08 06:41:00,
2013-08-08 02:46:00,64.1,63.8,29.96,NNE,25,0.0,2.0,99,0.00,,,1.30,WUHU216DAVISVP2,2013-08-08 06:46:00,
2013-08-08 02:51:00,64.0,63.7,29.96,NNE,25,0.0,2.0,99,0.00,,,1.30,WUHU216DAVISVP2,2013-08-08 06:51:00,
2013-08-08 02:56:00,64.0,63.7,29.96,NNE,25,0.0,2.0,99,0.00,,,1.30,WUHU216DAVISVP2,2013-08-08 06:56:00,
2013-08-08 03:01:00,64.0,63.7,29.95,NNE,25,0.0,2.0,99,0.00,,,1.30,WUHU216DAVISVP2,2013-08-08 07:01:00,
2013-08-08 03:06:00,63.9,63.6,29.95,NNE,25,0.0,2.0,99,0.00,,,1.30,WUHU216DAVISVP2,2013-08-08 07:06:00,
2013-08-08 03:11:00,63.9,63.6,29.95,NNE,25,1.0,2.0,99,0.00,,,1.30,WUHU216DAVISVP2,2013-08-08 07:11:00,
2013-08-08 03:16:00,63.9,63.6,29.95,NNE,25,1.0,2.0,99,0.00,,,1.30,WUHU216DAVISVP2,2013-08-08 07:16:00,
2013-08-08 03:21:00,63.8,63.5,29.95,NNE,25,0.0,2.0,99,0.00,,,1.30,WUHU216DAVISVP2,2013-08-08 07:21:00,
2013-08-08 03:26:00,63.8,63.5,29.95,NNE,25,0.0,2.0,99,0.00,,,1.30,WUHU216DAVISVP2,2013-08-08 07:26:00,
2013-08-08 03:31:00,63.8,63.5,29.95,NNE,25,0.0,2.0,99,0.00,,,1.30,WUHU216DAVISVP2,2013-08-08 07:31:00,
2013-08-08 03:36:00,63.8,63.5,29.95,NNE,25,0.0,2.0,99,0.00,,,1.30,WUHU216DAVISVP2,2013-08-08 07:36:00,
2013-08-08 03:41:00,63.8,63.5,29.95,NNE,28,1.0,3.0,99,0.00,,,1.30,WUHU216DAVISVP2,2013-08-08 07:41:00,
2013-08-08 03:46:00,63.8,63.5,29.95,NNE,30,1.0,3.0,99,0.00,,,1.30,WUHU216DAVISVP2,2013-08-08 07:46:00,
2013-08-08 03:51:00,63.7,63.4,29.95,ENE,75,3.0,3.0,99,0.00,,,1.30,WUHU216DAVISVP2,2013-08-08 07:51:00,
2013-08-08 03:56:00,63.6,63.3,29.95,ENE,77,0.0,3.0,99,0.00,,,1.30,WUHU216DAVISVP2,2013-08-08 07:56:00,
2013-08-08 04:01:00,63.6,63.3,29.95,ENE,77,0.0,3.0,99,0.00,,,1.30,WUHU216DAVISVP2,2013-08-08 08:01:00,
2013-08-08 04:06:00,63.5,63.2,29.95,ENE,77,0.0,3.0,99,0.00,,,1.30,WUHU216DAVISVP2,2013-08-08 08:06:00,
2013-08-08 04:11:00,63.4,63.1,29.95,ENE,77,0.0,2.0,99,0.00,,,1.30,WUHU216DAVISVP2,2013-08-08 08:11:00,
2013-08-08 04:16:00,63.4,63.1,29.95,ENE,77,0.0,2.0,99,0.00,,,1.30,WUHU216DAVISVP2,2013-08-08 08:16:00,
2013-08-08 04:21:00,63.5,63.2,29.95,ENE,77,0.0,2.0,99,0.00,,,1.30,WUHU216DAVISVP2,2013-08-08 08:21:00,
2013-08-08 04:26:00,63.5,63.2,29.95,ENE,77,2.0,2.0,99,0.00,,,1.30,WUHU216DAVISVP2,2013-08-08 08:26:00,
2013-08-08 04:31:00,63.4,63.1,29.95,ENE,77,0.0,3.0,99,0.00,,,1.30,WUHU216DAVISVP2,2013-08-08 08:31:00,
2013-08-08 04:36:00,63.4,63.1,29.95,ENE,77,0.0,3.0,99,0.00,,,1.30,WUHU216DAVISVP2,2013-08-08 08:36:00,
2013-08-08 04:41:00,63.4,63.1,29.95,ENE,77,0.0,3.0,99,0.00,,,1.30,WUHU216DAVISVP2,2013-08-08 08:41:00,
2013-08-08 04:46:00,63.4,63.1,29.95,ENE,77,0.0,3.0,99,0.00,,,1.30,WUHU216DAVISVP2,2013-08-08 08:46:00,
2013-08-08 04:51:00,63.4,63.1,29.95,ENE,77,0.0,2.0,99,0.00,,,1.30,WUHU216DAVISVP2,2013-08-08 08:51:00,
2013-08-08 04:56:00,63.4,63.1,29.95,ENE,77,1.0,2.0,99,0.00,,,1.30,WUHU216DAVISVP2,2013-08-08 08:56:00,
2013-08-08 05:01:00,63.3,63.0,29.95,ENE,77,1.0,2.0,99,0.00,,,1.30,WUHU216DAVISVP2,2013-08-08 09:01:00,
2013-08-08 05:06:00,63.2,62.9,29.95,ENE,77,0.0,2.0,99,0.00,,,1.30,WUHU216DAVISVP2,2013-08-08 09:06:00,
2013-08-08 05:11:00,63.2,62.9,29.96,ENE,77,0.0,2.0,99,0.00,,,1.30,WUHU216DAVISVP2,2013-08-08 09:11:00,
2013-08-08 05:16:00,63.2,62.9,29.95,ENE,77,0.0,2.0,99,0.00,,,1.30,WUHU216DAVISVP2,2013-08-08 09:16:00,
2013-08-08 05:21:00,63.2,62.9,29.96,ENE,77,0.0,2.0,99,0.00,,,1.30,WUHU216DAVISVP2,2013-08-08 09:21:00,
2013-08-08 05:26:00,63.1,62.8,29.96,ENE,77,0.0,2.0,99,0.00,,,1.30,WUHU216DAVISVP2,2013-08-08 09:26:00,
2013-08-08 05:31:00,63.1,62.8,29.96,ENE,77,0.0,3.0,99,0.00,,,1.30,WUHU216DAVISVP2,2013-08-08 09:31:00,
2013-08-08 05:36:00,63.1,62.8,29.96,ENE,77,0.0,3.0,99,0.00,,,1.30,WUHU216DAVISVP2,2013-08-08 09:36:00,
2013-08-08 05:41:00,63.1,62.8,29.96,ENE,77,1.0,3.0,99,0.00,,,1.30,WUHU216DAVISVP2,2013-08-08 09:41:00,
2013-08-08 05:46:00,63.0,62.7,29.96,ENE,77,2.0,3.0,99,0.00,,,1.30,WUHU216DAVISVP2,2013-08-08 09:46:00,
2013-08-08 05:51:00,63.1,62.8,29.96,ENE,77,0.0,2.0,99,0.00,,,1.30,WUHU216DAVISVP2,2013-08-08 09:51:00,
2013-08-08 05:56:00,63.0,62.7,29.96,ENE,77,0.0,2.0,99,0.00,,,1.30,WUHU216DAVISVP2,2013-08-08 09:56:00,
2013-08-08 06:01:00,62.9,62.6,29.96,ENE,77,1.0,2.0,99,0.00,,,1.30,WUHU216DAVISVP2,2013-08-08 10:01:00,
2013-08-08 06:06:00,62.8,62.5,29.96,ENE,77,0.0,3.0,99,0.00,,,1.30,WUHU216DAVISVP2,2013-08-08 10:06:00,
2013-08-08 06:11:00,62.8,62.5,29.96,ENE,77,2.0,3.0,99,0.00,,,1.30,WUHU216DAVISVP2,2013-08-08 10:11:00,
2013-08-08 06:16:00,62.8,62.5,29.96,ENE,77,1.0,3.0,99,0.00,,,1.30,WUHU216DAVISVP2,2013-08-08 10:16:00,
2013-08-08 06:21:00,62.7,62.4,29.96,ENE,77,0.0,2.0,99,0.00,,,1.30,WUHU216DAVISVP2,2013-08-08 10:21:00,
2013-08-08 06:26:00,62.7,62.4,29.96,ENE,77,0.0,2.0,99,0.00,,,1.30,WUHU216DAVISVP2,2013-08-08 10:26:00,
2013-08-08 06:31:00,62.7,62.4,29.96,ENE,77,0.0,2.0,99,0.00,,,1.30,WUHU216DAVISVP2,2013-08-08 10:31:00,
2013-08-08 06:36:00,62.8,62.5,29.96,ENE,77,0.0,2.0,99,0.00,,,1.30,WUHU216DAVISVP2,2013-08-08 10:36:00,
2013-08-08 06:41:00,62.8,62.5,29.96,ENE,77,1.0,2.0,99,0.00,,,1.30,WUHU216DAVISVP2,2013-08-08 10:41:00,
2013-08-08 06:46:00,62.8,62.5,29.96,ENE,77,0.0,2.0,99,0.00,,,1.30,WUHU216DAVISVP2,2013-08-08 10:46:00,
2013-08-08 06:51:00,62.8,62.5,29.96,ENE,77,0.0,2.0,99,0.00,,,1.30,WUHU216DAVISVP2,2013-08-08 10:51:00,
2013-08-08 06:56:00,62.7,62.4,29.96,ENE,77,0.0,2.0,99,0.00,,,1.30,WUHU216DAVISVP2,2013-08-08 10:56:00,
2013-08-08 07:01:00,62.8,62.5,29.97,ENE,77,0.0,2.0,99,0.00,,,1.30,WUHU216DAVISVP2,2013-08-08 11:01:00,
2013-08-08 07:06:00,62.8,62.5,29.97,ENE,77,0.0,2.0,99,0.00,,,1.30,WUHU216DAVISVP2,2013-08-08 11:06:00,
2013-08-08 07:11:00,62.8,62.5,29.97,ENE,77,0.0,2.0,99,0.00,,,1.30,WUHU216DAVISVP2,2013-08-08 11:11:00,
2013-08-08 07:16:00,62.8,62.5,29.97,ENE,77,0.0,2.0,99,0.00,,,1.30,WUHU216DAVISVP2,2013-08-08 11:16:00,
2013-08-08 07:21:00,62.9,62.6,29.97,ENE,77,0.0,2.0,99,0.00,,,1.30,WUHU216DAVISVP2,2013-08-08 11:21:00,
2013-08-08 07:26:00,63.0,62.7,29.97,ENE,77,0.0,2.0,99,0.00,,,1.30,WUHU216DAVISVP2,2013-08-08 11:26:00,
2013-08-08 07:31:00,63.0,62.7,29.97,ENE,77,0.0,2.0,99,0.00,,,1.30,WUHU216DAVISVP2,2013-08-08 11:31:00,
2013-08-08 07:36:00,63.1,62.8,29.97,ENE,77,0.0,1.0,99,0.00,,,1.30,WUHU216DAVISVP2,2013-08-08 11:36:00,
2013-08-08 07:41:00,63.3,63.0,29.97,ENE,77,0.0,1.0,99,0.00,,,1.30,WUHU216DAVISVP2,2013-08-08 11:41:00,
2013-08-08 07:46:00,63.4,63.1,29.97,ENE,77,0.0,1.0,99,0.00,,,1.30,WUHU216DAVISVP2,2013-08-08 11:46:00,
2013-08-08 07:51:00,63.5,63.2,29.97,ENE,77,0.0,1.0,99,0.00,,,1.30,WUHU216DAVISVP2,2013-08-08 11:51:00,
2013-08-08 07:56:00,63.6,63.3,29.97,ENE,77,0.0,1.0,99,0.00,,,1.30,WUHU216DAVISVP2,2013-08-08 11:56:00,
2013-08-08 08:01:00,63.7,63.4,29.97,ENE,77,0.0,1.0,99,0.00,,,1.30,WUHU216DAVISVP2,2013-08-08 12:01:00,
2013-08-08 08:06:00,63.8,63.5,29.97,ENE,77,0.0,1.0,99,0.00,,,1.30,WUHU216DAVISVP2,2013-08-08 12:06:00,
2013-08-08 08:11:00,63.9,63.6,29.97,ENE,77,0.0,1.0,99,0.00,,,1.30,WUHU216DAVISVP2,2013-08-08 12:11:00,
2013-08-08 08:16:00,63.9,63.6,29.97,ENE,77,0.0,1.0,99,0.00,,,1.30,WUHU216DAVISVP2,2013-08-08 12:16:00,
2013-08-08 08:21:00,64.1,63.8,29.97,ENE,77,0.0,1.0,99,0.00,,,1.30,WUHU216DAVISVP2,2013-08-08 12:21:00,
2013-08-08 08:26:00,64.3,64.0,29.97,ENE,77,0.0,1.0,99,0.00,,,1.30,WUHU216DAVISVP2,2013-08-08 12:26:00,
2013-08-08 08:31:00,64.5,64.2,29.97,ENE,77,0.0,1.0,99,0.00,,,1.30,WUHU216DAVISVP2,2013-08-08 12:31:00,
2013-08-08 08:36:00,64.6,64.3,29.97,ENE,77,0.0,1.0,99,0.00,,,1.30,WUHU216DAVISVP2,2013-08-08 12:36:00,
2013-08-08 08:41:00,64.6,64.3,29.97,ENE,77,0.0,1.0,99,0.00,,,1.30,WUHU216DAVISVP2,2013-08-08 12:41:00,
2013-08-08 08:46:00,64.6,64.3,29.97,ENE,77,1.0,1.0,99,0.00,,,1.30,WUHU216DAVISVP2,2013-08-08 12:46:00,
2013-08-08 08:51:00,64.7,64.4,29.97,ENE,77,0.0,1.0,99,0.00,,,1.30,WUHU216DAVISVP2,2013-08-08 12:51:00,
2013-08-08 08:56:00,64.9,64.6,29.97,ENE,77,0.0,1.0,99,0.00,,,1.30,WUHU216DAVISVP2,2013-08-08 12:56:00,
2013-08-08 09:01:00,65.0,64.7,29.97,ENE,77,0.0,1.0,99,0.00,,,1.30,WUHU216DAVISVP2,2013-08-08 13:01:00,
2013-08-08 09:06:00,65.1,64.8,29.97,ENE,77,0.0,1.0,99,0.00,,,1.30,WUHU216DAVISVP2,2013-08-08 13:06:00,
2013-08-08 09:11:00,65.4,65.1,29.97,ENE,77,0.0,0.0,99,0.00,,,1.30,WUHU216DAVISVP2,2013-08-08 13:11:00,
2013-08-08 09:16:00,65.6,65.3,29.97,ENE,77,0.0,1.0,99,0.00,,,1.30,WUHU216DAVISVP2,2013-08-08 13:16:00,
2013-08-08 09:21:00,65.9,65.6,29.98,ENE,77,0.0,1.0,99,0.00,,,1.30,WUHU216DAVISVP2,2013-08-08 13:21:00,
2013-08-08 09:26:00,66.1,65.8,29.98,ENE,77,0.0,1.0,99,0.00,,,1.30,WUHU216DAVISVP2,2013-08-08 13:26:00,
2013-08-08 09:31:00,66.2,65.9,29.98,ENE,77,0.0,1.0,99,0.00,,,1.30,WUHU216DAVISVP2,2013-08-08 13:31:00,
2013-08-08 09:36:00,66.5,66.2,29.97,ENE,77,0.0,1.0,99,0.00,,,1.30,WUHU216DAVISVP2,2013-08-08 13:36:00,
2013-08-08 09:41:00,66.8,66.5,29.98,ENE,77,0.0,1.0,99,0.00,,,1.30,WUHU216DAVISVP2,2013-08-08 13:41:00,
2013-08-08 09:46:00,67.0,66.7,29.98,ENE,77,0.0,1.0,99,0.00,,,1.30,WUHU216DAVISVP2,2013-08-08 13:46:00,
2013-08-08 09:51:00,67.3,67.0,29.97,ENE,77,0.0,1.0,99,0.00,,,1.30,WUHU216DAVISVP2,2013-08-08 13:51:00,
2013-08-08 09:56:00,67.4,67.1,29.97,ENE,77,1.0,2.0,99,0.00,,,1.30,WUHU216DAVISVP2,2013-08-08 13:56:00,
2013-08-08 10:01:00,67.6,67.0,29.97,ENE,77,0.0,2.0,98,0.00,,,1.30,WUHU216DAVISVP2,2013-08-08 14:01:00,
2013-08-08 10:06:00,67.8,67.2,29.97,ENE,77,1.0,2.0,98,0.00,,,1.30,WUHU216DAVISVP2,2013-08-08 14:06:00,
2013-08-08 10:11:00,67.7,66.8,29.97,ENE,77,0.0,2.0,97,0.00,,,1.30,WUHU216DAVISVP2,2013-08-08 14:11:00,
2013-08-08 10:16:00,68.1,67.2,29.97,ENE,77,0.0,2.0,97,0.00,,,1.30,WUHU216DAVISVP2,2013-08-08 14:16:00,
2013-08-08 10:21:00,68.5,67.3,29.97,ENE,77,0.0,2.0,96,0.00,,,1.30,WUHU216DAVISVP2,2013-08-08 14:21:00,
2013-08-08 10:26:00,69.1,68.2,29.97,ENE,77,0.0,1.0,97,0.00,,,1.30,WUHU216DAVISVP2,2013-08-08 14:26:00,
2013-08-08 10:31:00,69.5,68.0,29.96,ENE,77,1.0,2.0,95,0.00,,,1.30,WUHU216DAVISVP2,2013-08-08 14:31:00,
2013-08-08 10:36:00,70.0,68.5,29.96,ENE,77,0.0,2.0,95,0.00,,,1.30,WUHU216DAVISVP2,2013-08-08 14:36:00,
2013-08-08 10:41:00,70.5,69.0,29.96,ENE,77,2.0,3.0,95,0.00,,,1.30,WUHU216DAVISVP2,2013-08-08 14:41:00,
2013-08-08 10:46:00,71.0,68.9,29.96,ENE,77,0.0,3.0,93,0.00,,,1.30,WUHU216DAVISVP2,2013-08-08 14:46:00,
2013-08-08 10:51:00,71.5,69.1,29.96,NW,321,2.0,3.0,92,0.00,,,1.30,WUHU216DAVISVP2,2013-08-08 14:51:00,
2013-08-08 10:56:00,72.0,69.2,29.96,NW,317,0.0,3.0,91,0.00,,,1.30,WUHU216DAVISVP2,2013-08-08 14:56:00,
2013-08-08 11:01:00,72.4,69.3,29.96,NW,308,0.0,3.0,90,0.00,,,1.30,WUHU216DAVISVP2,2013-08-08 15:01:00,
2013-08-08 11:06:00,72.7,69.9,29.97,NW,308,0.0,3.0,91,0.00,,,1.30,WUHU216DAVISVP2,2013-08-08 15:06:00,
2013-08-08 11:11:00,73.1,70.0,29.96,NW,308,0.0,2.0,90,0.00,,,1.30,WUHU216DAVISVP2,2013-08-08 15:11:00,
2013-08-08 11:16:00,73.5,70.4,29.96,NW,308,0.0,2.0,90,0.00,,,1.30,WUHU216DAVISVP2,2013-08-08 15:16:00,
2013-08-08 11:21:00,74.0,70.9,29.96,NW,308,0.0,2.0,90,0.00,,,1.30,WUHU216DAVISVP2,2013-08-08 15:21:00,
2013-08-08 11:26:00,74.5,70.7,29.96,NW,308,1.0,2.0,88,0.00,,,1.30,WUHU216DAVISVP2,2013-08-08 15:26:00,
2013-08-08 11:31:00,75.3,71.5,29.96,NW,306,1.0,4.0,88,0.00,,,1.30,WUHU216DAVISVP2,2013-08-08 15:31:00,
2013-08-08 11:36:00,76.0,71.9,29.96,NW,306,0.0,4.0,87,0.00,,,1.30,WUHU216DAVISVP2,2013-08-08 15:36:00,
2013-08-08 11:41:00,76.7,72.2,29.96,NNW,341,1.0,4.0,86,0.00,,,1.30,WUHU216DAVISVP2,2013-08-08 15:41:00,
2013-08-08 11:46:00,77.3,72.5,29.96,NNW,331,1.0,4.0,85,0.00,,,1.30,WUHU216DAVISVP2,2013-08-08 15:46:00,
2013-08-08 11:51:00,77.8,72.2,29.96,West,275,2.0,3.0,83,0.00,,,1.30,WUHU216DAVISVP2,2013-08-08 15:51:00,
2013-08-08 11:56:00,78.1,72.5,29.96,NW,312,1.0,3.0,83,0.00,,,1.30,WUHU216DAVISVP2,2013-08-08 15:56:00,
2013-08-08 12:01:00,78.2,71.9,29.96,West,275,3.0,4.0,81,0.00,,,1.30,WUHU216DAVISVP2,2013-08-08 16:01:00,
2013-08-08 12:06:00,78.3,72.3,29.96,WNW,283,0.0,4.0,82,0.00,,,1.30,WUHU216DAVISVP2,2013-08-08 16:06:00,
2013-08-08 12:11:00,78.5,72.5,29.96,WNW,283,0.0,4.0,82,0.00,,,1.30,WUHU216DAVISVP2,2013-08-08 16:11:00,
2013-08-08 12:12:00,78.5,72.5,29.96,WNW,284,1.0,4.0,82,0.00,,,1.30,WUHU216DAVISVP2,2013-08-08 16:12:00,
2013-08-08 12:17:00,78.7,72.4,29.95,WNW,290,1.0,4.0,81,0.00,,,1.30,WUHU216DAVISVP2,2013-08-08 16:17:00,
2013-08-08 12:22:00,78.8,72.6,29.96,WNW,287,0.0,4.0,81,0.00,,,1.30,WUHU216DAVISVP2,2013-08-08 16:22:00,
2013-08-08 12:27:00,78.9,73.0,29.95,WNW,287,0.0,4.0,82,0.00,,,1.30,WUHU216DAVISVP2,2013-08-08 16:27:00,
2013-08-08 12:32:00,79.1,72.5,29.95,WNW,287,0.0,4.0,80,0.00,,,1.30,WUHU216DAVISVP2,2013-08-08 16:32:00,
2013-08-08 12:37:00,79.1,72.5,29.95,WNW,287,0.0,3.0,80,0.00,,,1.30,WUHU216DAVISVP2,2013-08-08 16:37:00,
2013-08-08 12:42:00,79.3,73.1,29.95,WNW,287,1.0,2.0,81,0.00,,,1.30,WUHU216DAVISVP2,2013-08-08 16:42:00,
2013-08-08 12:47:00,79.7,73.1,29.95,WNW,289,3.0,3.0,80,0.00,,,1.30,WUHU216DAVISVP2,2013-08-08 16:47:00,
2013-08-08 12:52:00,80.0,73.4,29.95,WNW,289,0.0,3.0,80,0.00,,,1.30,WUHU216DAVISVP2,2013-08-08 16:52:00,
2013-08-08 12:57:00,80.3,73.7,29.95,WNW,289,1.0,3.0,80,0.00,,,1.30,WUHU216DAVISVP2,2013-08-08 16:57:00,
2013-08-08 13:02:00,80.6,74.0,29.95,WNW,289,0.0,3.0,80,0.00,,,1.30,WUHU216DAVISVP2,2013-08-08 17:02:00,
2013-08-08 13:07:00,80.6,73.2,29.95,WNW,284,1.0,3.0,78,0.00,,,1.30,WUHU216DAVISVP2,2013-08-08 17:07:00,
2013-08-08 13:12:00,80.5,72.6,29.95,SW,224,1.0,5.0,77,0.00,,,1.30,WUHU216DAVISVP2,2013-08-08 17:12:00,
2013-08-08 13:17:00,80.5,73.0,29.95,SW,222,1.0,5.0,78,0.00,,,1.30,WUHU216DAVISVP2,2013-08-08 17:17:00,
2013-08-08 13:22:00,80.6,73.5,29.95,NW,305,1.0,5.0,79,0.00,,,1.30,WUHU216DAVISVP2,2013-08-08 17:22:00,
2013-08-08 13:27:00,80.5,72.6,29.95,SSW,210,0.0,7.0,77,0.00,,,1.30,WUHU216DAVISVP2,2013-08-08 17:27:00,
2013-08-08 13:32:00,80.4,73.3,29.94,WSW,249,0.0,7.0,79,0.00,,,1.30,WUHU216DAVISVP2,2013-08-08 17:32:00,
2013-08-08 13:37:00,80.2,72.5,29.94,SW,218,2.0,7.0,77,0.00,,,1.30,WUHU216DAVISVP2,2013-08-08 17:37:00,
2013-08-08 13:42:00,80.2,73.2,29.94,West,278,2.0,6.0,79,0.00,,,1.30,WUHU216DAVISVP2,2013-08-08 17:42:00,
2013-08-08 13:47:00,80.1,73.8,29.94,SW,223,3.0,7.0,81,0.00,,,1.30,WUHU216DAVISVP2,2013-08-08 17:47:00,
2013-08-08 13:52:00,79.4,73.9,29.94,WNW,303,5.0,8.0,83,0.00,,,1.30,WUHU216DAVISVP2,2013-08-08 17:52:00,
2013-08-08 13:57:00,78.9,73.0,29.94,South,179,3.0,8.0,82,0.00,,,1.30,WUHU216DAVISVP2,2013-08-08 17:57:00,
2013-08-08 14:02:00,78.7,72.8,29.94,South,187,2.0,8.0,82,0.00,,,1.30,WUHU216DAVISVP2,2013-08-08 18:02:00,
2013-08-08 14:07:00,78.7,72.8,29.94,South,188,4.0,8.0,82,0.00,,,1.30,WUHU216DAVISVP2,2013-08-08 18:07:00,
2013-08-08 14:12:00,79.0,73.1,29.94,SSW,199,3.0,8.0,82,0.00,,,1.30,WUHU216DAVISVP2,2013-08-08 18:12:00,
2013-08-08 14:17:00,79.6,74.1,29.93,West,266,0.0,7.0,83,0.00,,,1.30,WUHU216DAVISVP2,2013-08-08 18:17:00,
2013-08-08 14:22:00,80.2,74.3,29.93,WNW,293,5.0,7.0,82,0.00,,,1.30,WUHU216DAVISVP2,2013-08-08 18:22:00,
2013-08-08 14:27:00,81.0,74.7,29.93,WNW,289,3.0,6.0,81,0.00,,,1.30,WUHU216DAVISVP2,2013-08-08 18:27:00,
2013-08-08 14:32:00,81.5,74.5,29.93,SW,236,3.0,8.0,79,0.00,,,1.30,WUHU216DAVISVP2,2013-08-08 18:32:00,
2013-08-08 14:37:00,82.0,74.6,29.93,WNW,287,0.0,8.0,78,0.00,,,1.30,WUHU216DAVISVP2,2013-08-08 18:37:00,
2013-08-08 14:42:00,82.5,74.0,29.93,SW,228,3.0,8.0,75,0.00,,,1.30,WUHU216DAVISVP2,2013-08-08 18:42:00,
2013-08-08 14:47:00,82.7,74.2,29.92,WSW,255,1.0,8.0,75,0.00,,,1.30,WUHU216DAVISVP2,2013-08-08 18:47:00,
2013-08-08 14:52:00,82.8,74.3,29.92,West,278,1.0,5.0,75,0.00,,,1.30,WUHU216DAVISVP2,2013-08-08 18:52:00,
2013-08-08 14:57:00,83.2,74.8,29.92,WNW,299,2.0,5.0,76,0.00,,,1.30,WUHU216DAVISVP2,2013-08-08 18:57:00,
2013-08-08 15:02:00,83.3,73.3,29.92,WSW,246,0.0,8.0,72,0.00,,,1.30,WUHU216DAVISVP2,2013-08-08 19:02:00,
2013-08-08 15:07:00,82.9,72.9,29.92,SSW,210,7.0,8.0,72,0.00,,,1.30,WUHU216DAVISVP2,2013-08-08 19:07:00,
2013-08-08 15:12:00,82.2,73.5,29.92,South,181,4.0,8.0,75,0.00,,,1.30,WUHU216DAVISVP2,2013-08-08 19:12:00,
2013-08-08 15:17:00,81.9,73.0,29.92,SSW,197,4.0,8.0,74,0.00,,,1.30,WUHU216DAVISVP2,2013-08-08 19:17:00,
2013-08-08 15:22:00,81.6,73.1,29.92,SSW,205,0.0,7.0,75,0.00,,,1.30,WUHU216DAVISVP2,2013-08-08 19:22:00,
2013-08-08 15:27:00,81.4,73.3,29.91,SW,217,1.0,7.0,76,0.00,,,1.30,WUHU216DAVISVP2,2013-08-08 19:27:00,
2013-08-08 15:32:00,81.5,73.4,29.91,SSW,203,1.0,6.0,76,0.00,,,1.30,WUHU216DAVISVP2,2013-08-08 19:32:00,
2013-08-08 15:37:00,81.9,73.4,29.91,East,84,0.0,6.0,75,0.00,,,1.30,WUHU216DAVISVP2,2013-08-08 19:37:00,
2013-08-08 15:42:00,82.3,74.5,29.91,SW,218,0.0,6.0,77,0.00,,,1.30,WUHU216DAVISVP2,2013-08-08 19:42:00,
2013-08-08 15:47:00,83.0,74.1,29.91,SSW,211,1.0,4.0,74,0.00,,,1.30,WUHU216DAVISVP2,2013-08-08 19:47:00,
2013-08-08 15:52:00,83.3,74.3,29.90,SSE,158,2.0,4.0,74,0.00,,,1.30,WUHU216DAVISVP2,2013-08-08 19:52:00,
2013-08-08 15:57:00,83.8,74.4,29.90,ESE,111,0.0,4.0,73,0.00,,,1.30,WUHU216DAVISVP2,2013-08-08 19:57:00,
2013-08-08 16:02:00,84.4,74.2,29.90,WNW,289,0.0,4.0,71,0.00,,,1.30,WUHU216DAVISVP2,2013-08-08 20:02:00,
2013-08-08 16:07:00,84.8,74.3,29.90,NW,311,4.0,4.0,71,0.00,,,1.30,WUHU216DAVISVP2,2013-08-08 20:07:00,
2013-08-08 16:12:00,85.0,73.7,29.90,South,184,0.0,4.0,69,0.00,,,1.30,WUHU216DAVISVP2,2013-08-08 20:12:00,
2013-08-08 16:17:00,84.8,73.1,29.90,West,274,1.0,4.0,68,0.00,,,1.30,WUHU216DAVISVP2,2013-08-08 20:17:00,
2013-08-08 16:22:00,84.6,73.6,29.90,WNW,286,1.0,5.0,69,0.00,,,1.30,WUHU216DAVISVP2,2013-08-08 20:22:00,
2013-08-08 16:27:00,84.5,74.3,29.90,SW,226,2.0,5.0,71,0.00,,,1.30,WUHU216DAVISVP2,2013-08-08 20:27:00,
2013-08-08 16:32:00,84.7,73.2,29.90,WSW,241,0.0,5.0,68,0.00,,,0.00,WUHU216DAVISVP2,2013-08-08 20:32:00,
2013-08-08 16:37:00,84.6,74.0,29.89,WSW,249,0.0,5.0,70,0.00,,,0.00,WUHU216DAVISVP2,2013-08-08 20:37:00,
2013-08-08 16:42:00,84.7,75.3,29.89,WSW,249,0.0,5.0,73,0.00,,,0.00,WUHU216DAVISVP2,2013-08-08 20:42:00,
2013-08-08 16:47:00,84.6,74.8,29.89,SSW,194,0.0,4.0,72,0.00,,,0.00,WUHU216DAVISVP2,2013-08-08 20:47:00,
2013-08-08 16:52:00,84.2,74.0,29.89,SSW,208,1.0,5.0,71,0.00,,,0.00,WUHU216DAVISVP2,2013-08-08 20:52:00,
2013-08-08 16:57:00,83.8,74.4,29.89,SSW,207,1.0,5.0,73,0.00,,,0.00,WUHU216DAVISVP2,2013-08-08 20:57:00,
2013-08-08 17:02:00,83.3,74.7,29.89,SSW,196,0.0,5.0,75,0.00,,,0.00,WUHU216DAVISVP2,2013-08-08 21:02:00,
2013-08-08 17:07:00,82.9,74.3,29.89,SSW,206,0.0,5.0,75,0.00,,,0.00,WUHU216DAVISVP2,2013-08-08 21:07:00,
2013-08-08 17:12:00,82.5,73.6,29.89,SW,217,0.0,4.0,74,0.00,,,0.00,WUHU216DAVISVP2,2013-08-08 21:12:00,
2013-08-08 17:17:00,82.3,74.2,29.89,SSW,210,1.0,3.0,76,0.00,,,0.00,WUHU216DAVISVP2,2013-08-08 21:17:00,
2013-08-08 17:22:00,82.0,74.2,29.89,SW,225,4.0,4.0,77,0.00,,,0.00,WUHU216DAVISVP2,2013-08-08 21:22:00,
2013-08-08 17:27:00,81.7,72.8,29.89,SSW,205,2.0,7.0,74,0.00,,,0.00,WUHU216DAVISVP2,2013-08-08 21:27:00,
2013-08-08 17:33:00,81.6,73.1,29.89,SW,218,2.0,7.0,75,0.00,,,0.00,WUHU216DAVISVP2,2013-08-08 21:33:00,
2013-08-08 17:38:00,81.5,73.0,29.89,SW,218,0.0,7.0,75,0.00,,,0.00,WUHU216DAVISVP2,2013-08-08 21:38:00,
2013-08-08 17:43:00,81.4,73.3,29.90,SW,217,0.0,7.0,76,0.00,,,0.00,WUHU216DAVISVP2,2013-08-08 21:43:00,
2013-08-08 17:48:00,81.3,72.8,29.89,SW,214,1.0,4.0,75,0.00,,,0.00,WUHU216DAVISVP2,2013-08-08 21:48:00,
2013-08-08 17:54:00,81.2,73.1,29.89,SSW,213,2.0,4.0,76,0.00,,,0.00,WUHU216DAVISVP2,2013-08-08 21:54:00,
2013-08-08 17:59:00,81.1,72.6,29.90,South,176,4.0,6.0,75,0.00,,,0.00,WUHU216DAVISVP2,2013-08-08 21:59:00,
2013-08-08 18:04:00,80.9,73.5,29.90,South,191,3.0,6.0,78,0.00,,,0.00,WUHU216DAVISVP2,2013-08-08 22:04:00,
2013-08-08 18:09:00,80.5,72.6,29.90,SSW,199,8.0,9.0,77,0.00,,,0.00,WUHU216DAVISVP2,2013-08-08 22:09:00,
2013-08-08 18:14:00,79.7,71.8,29.91,SSW,197,5.0,10.0,77,0.00,,,0.00,WUHU216DAVISVP2,2013-08-08 22:14:00,
2013-08-08 18:19:00,78.6,71.9,29.91,SW,230,2.0,13.0,80,0.01,,,0.01,WUHU216DAVISVP2,2013-08-08 22:19:00,
2013-08-08 18:25:00,77.6,71.7,29.91,NNE,13,2.0,13.0,82,0.01,,,0.01,WUHU216DAVISVP2,2013-08-08 22:25:00,
2013-08-08 18:30:00,76.5,71.7,29.91,NNW,347,0.0,13.0,85,0.02,,,0.02,WUHU216DAVISVP2,2013-08-08 22:30:00,
2013-08-08 18:36:00,76.0,71.5,29.91,NNW,345,2.0,9.0,86,0.02,,,0.02,WUHU216DAVISVP2,2013-08-08 22:36:00,
2013-08-08 18:41:00,75.4,71.3,29.91,WNW,295,0.0,8.0,87,0.02,,,0.02,WUHU216DAVISVP2,2013-08-08 22:41:00,
2013-08-08 18:47:00,75.0,71.5,29.91,WNW,295,0.0,3.0,89,0.02,,,0.02,WUHU216DAVISVP2,2013-08-08 22:47:00,
2013-08-08 18:52:00,74.8,71.7,29.91,WNW,295,0.0,3.0,90,0.02,,,0.02,WUHU216DAVISVP2,2013-08-08 22:52:00,
2013-08-08 18:57:00,74.5,71.4,29.91,WNW,295,0.0,3.0,90,0.03,,,0.03,WUHU216DAVISVP2,2013-08-08 22:57:00,
2013-08-08 19:02:00,74.3,71.2,29.91,WNW,292,1.0,2.0,90,0.03,,,0.03,WUHU216DAVISVP2,2013-08-08 23:02:00,
2013-08-08 19:07:00,74.2,71.4,29.91,SW,219,0.0,2.0,91,0.03,,,0.03,WUHU216DAVISVP2,2013-08-08 23:07:00,
2013-08-08 19:12:00,74.3,71.8,29.91,SW,219,0.0,2.0,92,0.03,,,0.03,WUHU216DAVISVP2,2013-08-08 23:12:00,
2013-08-08 19:17:00,74.3,72.1,29.91,SW,219,0.0,2.0,93,0.03,,,0.03,WUHU216DAVISVP2,2013-08-08 23:17:00,
2013-08-08 19:22:00,74.3,72.1,29.91,SW,219,0.0,2.0,93,0.02,,,0.03,WUHU216DAVISVP2,2013-08-08 23:22:00,
2013-08-08 19:28:00,74.1,71.9,29.91,SW,219,0.0,1.0,93,0.01,,,0.03,WUHU216DAVISVP2,2013-08-08 23:28:00,
2013-08-08 19:33:00,74.0,71.8,29.91,SW,219,0.0,1.0,93,0.01,,,0.03,WUHU216DAVISVP2,2013-08-08 23:33:00,
2013-08-08 19:38:00,73.9,71.7,29.92,SW,219,0.0,1.0,93,0.01,,,0.03,WUHU216DAVISVP2,2013-08-08 23:38:00,
2013-08-08 19:43:00,73.8,71.6,29.92,SW,219,0.0,1.0,93,0.01,,,0.03,WUHU216DAVISVP2,2013-08-08 23:43:00,
2013-08-08 19:48:00,73.6,71.7,29.91,SW,219,0.0,1.0,94,0.01,,,0.03,WUHU216DAVISVP2,2013-08-08 23:48:00,
2013-08-08 19:53:00,73.5,71.6,29.91,SW,219,0.0,1.0,94,0.00,,,0.03,WUHU216DAVISVP2,2013-08-08 23:53:00,
2013-08-08 19:58:00,73.5,71.9,29.91,SW,219,0.0,1.0,95,0.00,,,0.03,WUHU216DAVISVP2,2013-08-08 23:58:00,
2013-08-08 20:03:00,73.4,71.5,29.91,SW,224,0.0,1.0,94,0.00,,,0.03,WUHU216DAVISVP2,2013-08-09 00:03:00,
2013-08-08 20:08:00,73.3,71.8,29.91,SW,224,0.0,1.0,95,0.00,,,0.03,WUHU216DAVISVP2,2013-08-09 00:08:00,
2013-08-08 20:14:00,73.3,71.8,29.91,SW,224,0.0,1.0,95,0.00,,,0.03,WUHU216DAVISVP2,2013-08-09 00:14:00,
2013-08-08 20:19:00,73.1,71.6,29.91,SW,224,0.0,1.0,95,0.00,,,0.03,WUHU216DAVISVP2,2013-08-09 00:19:00,
2013-08-08 20:24:00,73.1,71.6,29.92,SW,224,1.0,2.0,95,0.00,,,0.03,WUHU216DAVISVP2,2013-08-09 00:24:00,
2013-08-08 20:30:00,73.0,71.5,29.92,SW,224,0.0,2.0,95,0.00,,,0.03,WUHU216DAVISVP2,2013-08-09 00:30:00,
2013-08-08 20:35:00,73.0,71.8,29.92,SW,224,0.0,2.0,96,0.00,,,0.03,WUHU216DAVISVP2,2013-08-09 00:35:00,
2013-08-08 20:40:00,72.9,71.7,29.92,SW,224,0.0,2.0,96,0.00,,,0.03,WUHU216DAVISVP2,2013-08-09 00:40:00,
2013-08-08 20:45:00,72.9,71.7,29.92,East,82,1.0,2.0,96,0.00,,,0.03,WUHU216DAVISVP2,2013-08-09 00:45:00,
2013-08-08 20:50:00,72.8,71.6,29.92,East,82,0.0,2.0,96,0.00,,,0.03,WUHU216DAVISVP2,2013-08-09 00:50:00,
2013-08-08 20:55:00,72.7,71.5,29.92,East,82,0.0,2.0,96,0.00,,,0.03,WUHU216DAVISVP2,2013-08-09 00:55:00,
2013-08-08 21:01:00,72.6,71.4,29.92,East,82,1.0,2.0,96,0.00,,,0.03,WUHU216DAVISVP2,2013-08-09 01:01:00,
2013-08-08 21:06:00,72.5,71.3,29.92,East,82,0.0,2.0,96,0.00,,,0.03,WUHU216DAVISVP2,2013-08-09 01:06:00,
2013-08-08 21:11:00,72.4,71.2,29.92,East,82,0.0,2.0,96,0.00,,,0.03,WUHU216DAVISVP2,2013-08-09 01:11:00,
2013-08-08 21:16:00,72.4,71.5,29.92,East,82,0.0,2.0,97,0.01,,,0.04,WUHU216DAVISVP2,2013-08-09 01:16:00,
2013-08-08 21:21:00,72.4,71.5,29.92,East,82,0.0,1.0,97,0.01,,,0.04,WUHU216DAVISVP2,2013-08-09 01:21:00,
2013-08-08 21:26:00,72.4,71.5,29.92,East,82,0.0,1.0,97,0.01,,,0.04,WUHU216DAVISVP2,2013-08-09 01:26:00,
2013-08-08 21:31:00,72.3,71.4,29.92,East,82,0.0,1.0,97,0.01,,,0.04,WUHU216DAVISVP2,2013-08-09 01:31:00,
2013-08-08 21:36:00,72.3,71.4,29.92,North,354,2.0,2.0,97,0.01,,,0.04,WUHU216DAVISVP2,2013-08-09 01:36:00,
2013-08-08 21:41:00,72.2,71.3,29.93,North,354,0.0,2.0,97,0.01,,,0.04,WUHU216DAVISVP2,2013-08-09 01:41:00,
2013-08-08 21:46:00,72.1,71.2,29.92,NNW,340,0.0,2.0,97,0.01,,,0.04,WUHU216DAVISVP2,2013-08-09 01:46:00,
2013-08-08 21:52:00,71.9,71.0,29.93,NNW,340,0.0,2.0,97,0.01,,,0.04,WUHU216DAVISVP2,2013-08-09 01:52:00,
2013-08-08 21:57:00,71.8,70.9,29.93,NNW,340,0.0,2.0,97,0.01,,,0.04,WUHU216DAVISVP2,2013-08-09 01:57:00,
2013-08-08 22:02:00,71.8,70.9,29.93,NNW,340,0.0,1.0,97,0.01,,,0.04,WUHU216DAVISVP2,2013-08-09 02:02:00,
2013-08-08 22:07:00,71.7,70.8,29.93,NNW,340,0.0,1.0,97,0.01,,,0.04,WUHU216DAVISVP2,2013-08-09 02:07:00,
2013-08-08 22:12:00,71.7,70.8,29.92,NNW,340,0.0,1.0,97,0.00,,,0.04,WUHU216DAVISVP2,2013-08-09 02:12:00,
2013-08-08 22:18:00,71.6,70.7,29.92,NNW,340,0.0,1.0,97,0.00,,,0.04,WUHU216DAVISVP2,2013-08-09 02:18:00,
2013-08-08 22:23:00,71.5,70.6,29.92,NNW,340,0.0,1.0,97,0.00,,,0.04,WUHU216DAVISVP2,2013-08-09 02:23:00,
2013-08-08 22:28:00,71.4,70.5,29.92,NNW,340,0.0,1.0,97,0.00,,,0.04,WUHU216DAVISVP2,2013-08-09 02:28:00,
2013-08-08 22:33:00,71.3,70.4,29.92,NNW,340,0.0,1.0,97,0.00,,,0.04,WUHU216DAVISVP2,2013-08-09 02:33:00,
2013-08-08 22:39:00,71.3,70.4,29.92,NNW,340,0.0,0.0,97,0.00,,,0.04,WUHU216DAVISVP2,2013-08-09 02:39:00,
2013-08-08 22:44:00,71.2,70.3,29.92,NNW,340,0.0,0.0,97,0.00,,,0.04,WUHU216DAVISVP2,2013-08-09 02:44:00,
2013-08-08 22:49:00,71.1,70.2,29.92,NNW,340,0.0,0.0,97,0.00,,,0.04,WUHU216DAVISVP2,2013-08-09 02:49:00,
2013-08-08 22:54:00,71.2,70.6,29.92,NNW,340,1.0,1.0,98,0.00,,,0.04,WUHU216DAVISVP2,2013-08-09 02:54:00,
2013-08-08 22:59:00,71.3,70.7,29.91,NNW,340,0.0,1.0,98,0.00,,,0.04,WUHU216DAVISVP2,2013-08-09 02:59:00,
2013-08-08 23:05:00,71.2,70.6,29.91,NNW,340,0.0,1.0,98,0.00,,,0.04,WUHU216DAVISVP2,2013-08-09 03:05:00,
2013-08-08 23:10:00,71.2,70.6,29.92,NNW,340,0.0,1.0,98,0.00,,,0.04,WUHU216DAVISVP2,2013-08-09 03:10:00,
2013-08-08 23:15:00,71.1,70.5,29.92,NNW,340,1.0,1.0,98,0.00,,,0.04,WUHU216DAVISVP2,2013-08-09 03:15:00,
2013-08-08 23:20:00,71.2,70.6,29.92,NNW,340,0.0,2.0,98,0.00,,,0.04,WUHU216DAVISVP2,2013-08-09 03:20:00,
2013-08-08 23:25:00,71.1,70.5,29.91,NNW,340,0.0,2.0,98,0.00,,,0.04,WUHU216DAVISVP2,2013-08-09 03:25:00,
2013-08-08 23:30:00,71.0,70.1,29.92,NNW,340,0.0,2.0,97,0.00,,,0.04,WUHU216DAVISVP2,2013-08-09 03:30:00,
2013-08-08 23:35:00,70.9,70.0,29.92,NNW,340,0.0,2.0,97,0.00,,,0.04,WUHU216DAVISVP2,2013-08-09 03:35:00,
2013-08-08 23:40:00,70.9,70.0,29.91,NNW,340,0.0,1.0,97,0.00,,,0.04,WUHU216DAVISVP2,2013-08-09 03:40:00,
2013-08-08 23:46:00,70.9,70.3,29.91,NNW,340,0.0,1.0,98,0.00,,,0.04,WUHU216DAVISVP2,2013-08-09 03:46:00,
2013-08-08 23:51:00,71.1,70.5,29.91,NNW,340,0.0,1.0,98,0.01,,,0.05,WUHU216DAVISVP2,2013-08-09 03:51:00,
2013-08-08 23:56:00,71.0,70.4,29.91,NNW,340,0.0,1.0,98,0.01,,,0.05,WUHU216DAVISVP2,2013-08-09 03:56:00,